Tracking 30258 objects as of 19-Feb-2025
HD Live streaming from Space Station
objects crossing your sky now

YAOGAN-36 02C

Track YAOGAN-36 02C now!
10-day predictions


NORAD ID: 54045
Int'l Code: 2022-133D
Perigee: 492.6 km
Apogee: 512.2 km
Inclination: 35.0 °
Period: 94.5 minutes
Semi major axis: 6873 km
RCS: Unknown
Launch date: October 14, 2022
Source: People's Republic of China (PRC)
Launch site: Xichang Space Center, China (XSC)
Your satellite tracking list
Your tracking list is empty




NASA's NSSDC Master Catalog

Two Line Element Set (TLE):
1 54045U 22133D   25050.06382254  .00023505  00000-0  95640-3 0  9993
2 54045  34.9937 285.3836 0014256  89.9595 270.2753 15.23526183130975
Source of the keplerian elements: AFSPC